Weather History for KISW - July, 2013

Change the Weather History Date:

Tuesday, July 30, 2013

  Actual Average Record
Temperature  
Mean Temperature 68 °F -  
Max Temperature 80 °F 80 °F 98 °F (1975)
Min Temperature 57 °F 57 °F 44 °F (1952)
Cooling Degree Days 2    
Growing Degree Days 18 (Base 50)    
Moisture  
Dew Point 57 °F    
Average Humidity 71    
Maximum Humidity 93    
Minimum Humidity 43    
Precipitation  
Precipitation 0.00 in - - ()
Sea Level Pressure  
Sea Level Pressure 30.14 in    
Wind  
Wind Speed 4 mph (South)    
Max Wind Speed 10 mph    
Max Gust Speed -    
Visibility 10 miles    
Events      
Averages and records for this station are not official NWS values.
T = Trace of Precipitation, MM = Missing Value Source: NWS Daily Summary

Daily Weather History Graph

Daily Weather History Graph

Search for Another Location

Airport or City:

Trip Planner

Search our weather history database for the weather conditions in past years. The results will help you decide how hot, cold, wet, or windy it might be!

Date:

Astronomy

Jul. 30, 2013 Rise Set
Actual Time 5:44 AM CDT 8:26 PM CDT
Civil Twilight 5:11 AM CDT 8:59 PM CDT
Nautical Twilight 4:28 AM CDT 9:41 PM CDT
Astronomical Twilight 3:40 AM CDT 10:29 PM CDT
Moon 12:04 AM CDT (7/30) 2:45 PM CDT (7/30)
Length of Visible Light 15h 48m
Length of Day
14h 41m
Last Quarter, 41% of the Moon is Illuminated
Jul 30
Last Quarter
Aug 6
New
Aug 14
First Quarter
Aug 20
Full
Aug 28
Last Quarter

Hourly Weather History & Observations

Time (CDT) Temp. Dew Point Humidity Pressure Visibility Wind Dir Wind Speed Gust Speed Precip Events Conditions
12:54 AM 60.1 °F 55.0 °F 83% 30.16 in 10.0 mi SSE 3.5 mph - N/A   Clear
1:54 AM 57.9 °F 55.0 °F 90% 30.16 in 10.0 mi SSE 3.5 mph - N/A   Clear
2:54 AM 57.9 °F 55.0 °F 90% 30.15 in 10.0 mi South 4.6 mph - N/A   Clear
3:54 AM 57.0 °F 55.0 °F 93% 30.16 in 10.0 mi South 3.5 mph - N/A   Clear
4:54 AM 57.0 °F 55.0 °F 93% 30.16 in 10.0 mi Calm Calm - N/A   Mostly Cloudy
5:54 AM 57.9 °F 55.9 °F 93% 30.17 in 10.0 mi Calm Calm - N/A   Overcast
6:54 AM 59.0 °F 55.9 °F 90% 30.17 in 10.0 mi SSE 4.6 mph - N/A   Overcast
7:54 AM 60.1 °F 57.0 °F 90% 30.19 in 10.0 mi South 3.5 mph - N/A   Overcast
8:54 AM 63.0 °F 57.9 °F 84% 30.19 in 10.0 mi South 3.5 mph - N/A   Overcast
9:54 AM 66.0 °F 59.0 °F 78% 30.18 in 10.0 mi SSE 4.6 mph - 0.00 in   Overcast
10:54 AM 69.1 °F 59.0 °F 70% 30.17 in 10.0 mi Calm Calm - N/A   Overcast
11:54 AM 75.9 °F 55.9 °F 50% 30.15 in 10.0 mi SW 6.9 mph - N/A   Overcast
12:54 PM 78.1 °F 55.0 °F 45% 30.14 in 10.0 mi SSW 10.4 mph - N/A   Overcast
1:54 PM 78.1 °F 54.0 °F 43% 30.13 in 10.0 mi SW 6.9 mph - N/A   Mostly Cloudy
2:54 PM 77.0 °F 55.0 °F 47% 30.11 in 10.0 mi Variable 3.5 mph - N/A   Overcast
3:54 PM 75.9 °F 57.0 °F 52% 30.10 in 10.0 mi South 4.6 mph - N/A   Overcast
4:54 PM 75.0 °F 57.9 °F 55% 30.10 in 10.0 mi SW 3.5 mph - N/A   Overcast
5:54 PM 73.9 °F 57.9 °F 57% 30.10 in 10.0 mi SSW 4.6 mph - N/A   Overcast
6:54 PM 73.9 °F 57.0 °F 55% 30.09 in 10.0 mi South 3.5 mph - N/A   Overcast
7:54 PM 72.0 °F 57.9 °F 61% 30.09 in 10.0 mi South 5.8 mph - N/A   Partly Cloudy
8:54 PM 69.1 °F 57.0 °F 65% 30.09 in 10.0 mi South 6.9 mph - N/A   Overcast
9:54 PM 68.0 °F 57.9 °F 70% 30.11 in 10.0 mi South 5.8 mph - N/A   Overcast
10:54 PM 66.0 °F 57.9 °F 75% 30.10 in 10.0 mi South 3.5 mph - N/A   Mostly Cloudy
11:54 PM 64.9 °F 59.0 °F 81% 30.09 in 10.0 mi Calm Calm - N/A   Overcast